1998-067UQ

Last updated on Thu Jan 05 2023 00:02:05 GMT+0000 (Coordinated Universal Time)

1 55123U 98067UQ 23004.59974703 .00067656 00000+0 11351-2 0 9991 2 55123 51.6430 58.8087 0003001 278.7860 81.2790 15.51171177 1021

Satellite not in orbit

1998-067UQ